Regional Weather Roundup
Issued by NWS

Home | Current Version | Previous Version | Text Only | Print | Product List | Glossary On
Versions: 1 2 3 4 5 6 7 8 9 10 11 12 13 14 15 16 17 18 19 20 21 22 23 24 25 26 27 28 29 30 31 32 33 34 35 36 37 38 39 40 41 42 43 44 45 46 47 48 49 50
000
ASUS43 KMKX 250611
RWRWI

WISCONSIN REGIONAL WEATHER ROUNDUP
NATIONAL WEATHER SERVICE MILWAUKEE/SULLIVAN WI
100 AM CDT FRI MAY 25 2018

NOTE: "FAIR" INDICATES FEW OR NO CLOUDS BELOW 12,000 FEET WITH NO
SIGNIFICANT WEATHER AND/OR OBSTRUCTIONS TO VISIBILITY.

WIZ001-002-006>008-014>016-023>028-250700-
NORTHWEST WISCONSIN

CITY           SKY/WX    TMP DP  RH WIND       PRES   REMARKS
SUPERIOR ARPT  FOG       50  50 100 CALM      29.81F VSB 1/2
6HR MIN TEMP:  50; 6HR MAX TEMP:  56;

ASHLAND        FAIR      69  64  84 SW7       29.81F
6HR MIN TEMP:  62; 6HR MAX TEMP:  72; 6HR PCP:  0.01;

HAYWARD        FAIR      70  59  68 S6        29.85F
6HR MIN TEMP:  70; 6HR MAX TEMP:  78;

SIREN          FAIR      71  58  63 S12G18    29.86S
6HR MIN TEMP:  71; 6HR MAX TEMP:  85;

CUMBERLAND     MOCLDY    64  61  88 S9        29.90F THUNDER
RICE LAKE      FAIR      66  62  87 S7        29.91F THUNDER
6HR MIN TEMP:  66; 6HR MAX TEMP:  87; 6HR PCP:  0.09;

CHETEK         FAIR      65  63  93 CALM      29.91F
6HR MIN TEMP:  64; 6HR MAX TEMP:  86; 6HR PCP:  0.11;

LADYSMITH      CLOUDY    69  60  74 SW9       29.94R
6HR MIN TEMP:  69; 6HR MAX TEMP:  83;

EAU CLAIRE     LGT RAIN  66  64  93 N3        29.93S
6HR MIN TEMP:  66; 6HR MAX TEMP:  86; 6HR PCP:  0.14;

MENOMONIE      TSTM      67  65  95 E6        29.93F
6HR MIN TEMP:  65; 6HR MAX TEMP:  87; 6HR PCP:  0.51;

NEW RICHMOND   FAIR      67  62  83 SE8       29.90F
6HR MIN TEMP:  66; 6HR MAX TEMP:  85; 6HR PCP:  0.05;

OSCEOLA        FAIR      69  62  79 SE6       29.91F
6HR MIN TEMP:  67; 6HR MAX TEMP:  86; 6HR PCP:  0.02;

$$

WIZ003>005-009-010-017-018-250700-
NORTH CENTRAL WISCONSIN

CITY           SKY/WX    TMP DP  RH WIND       PRES   REMARKS
MANITOWISH WTR FAIR      62  62 100 S5        29.90F
6HR MIN TEMP:  61; 6HR MAX TEMP:  68; 6HR PCP:  0.73;

ARBOR VITAE    FAIR      63  62  96 CALM      29.92F
6HR MIN TEMP:  63; 6HR MAX TEMP:  72; 6HR PCP:  1.28;

WOODRUFF       FAIR      63  62  96 CALM      29.92F
6HR MIN TEMP:  63; 6HR MAX TEMP:  72; 6HR PCP:  1.28;

RHINELANDER    FAIR      66  64  93 S3        29.94F
6HR MIN TEMP:  65; 6HR MAX TEMP:  83; 6HR PCP:  0.28;

EAGLE RIVER    FAIR      62  62 100 S5        29.92F
6HR MIN TEMP:  61; 6HR MAX TEMP:  78; 6HR PCP:  2.20;

LAND O LAKES   FAIR      62  61  96 CALM      29.93F
6HR MIN TEMP:  62; 6HR MAX TEMP:  78; 6HR PCP:  0.70;

PHILLIPS       FAIR      72  61  67 SW7       29.90F
6HR MIN TEMP:  69; 6HR MAX TEMP:  82;

TOMAHAWK       FAIR      69  60  74 CALM      29.93F
6HR MIN TEMP:  67; 6HR MAX TEMP:  81;

MEDFORD        FAIR      70  58  66 SW5       29.94F
6HR MIN TEMP:  70; 6HR MAX TEMP:  82;

MERRILL        FAIR      72  63  73 W10       29.94S
$$

WIZ029-030-035-036-043>047-250700-
CENTRAL WISCONSIN

CITY           SKY/WX    TMP DP  RH WIND       PRES   REMARKS
WAUSAU         FAIR      72  61  68 SW6       29.91F
6HR MIN TEMP:  72; 6HR MAX TEMP:  83;

MOSINEE        FAIR      70  61  73 S9        29.95F
MARSHFIELD     FAIR      71  63  75 W7        29.95R
6HR MIN TEMP:  69; 6HR MAX TEMP:  83;

STEVENS POINT  FAIR      70  61  71 S8        29.95F
6HR MIN TEMP:  70; 6HR MAX TEMP:  81;

WAUPACA        FAIR      70  61  71 S6        29.95F
6HR MIN TEMP:  68; 6HR MAX TEMP:  84;

WAUTOMA        FAIR      65  61  87 S5        29.96F
6HR MIN TEMP:  64; 6HR MAX TEMP:  84;

WISC RAPIDS    FAIR      73  62  68 S7        29.95F
6HR MIN TEMP:  73; 6HR MAX TEMP:  84;

CAMP DOUGLAS   FAIR      73  64  72 S10       29.95S
6HR MIN TEMP:  66; 6HR MAX TEMP:  82; 6HR PCP: TRACE;

$$

WIZ011>013-019>022-031-037>040-048>050-250700-
NORTHEAST WISCONSIN

CITY           SKY/WX    TMP DP  RH WIND       PRES   REMARKS
ANTIGO         FAIR      70  60  70 SW9       29.94F
6HR MIN TEMP:  67; 6HR MAX TEMP:  79;

SHAWANO        FAIR      73  60  65 CALM      29.92F
6HR MIN TEMP:  72; 6HR MAX TEMP:  85;

OCONTO         MOCLDY    69  57  67 SW3       29.92F
6HR MIN TEMP:  66; 6HR MAX TEMP:  76;

STURGEON BAY   FAIR      68  55  63 S10       29.94F
6HR MIN TEMP:  68; 6HR MAX TEMP:  72;

GREEN BAY      FAIR      68  59  73 S7        29.94F
6HR MIN TEMP:  68; 6HR MAX TEMP:  83;

MANITOWOC      FAIR      70  54  56 S9        29.97
6HR MIN TEMP:  68; 6HR MAX TEMP:  72;

APPLETON       FAIR      68  55  64 S8        29.94F
CLINTONVILLE   FAIR      72  58  62 SW8       29.93F
6HR MIN TEMP:  72; 6HR MAX TEMP:  83;

OSHKOSH        FAIR      70  59  68 S12       29.96F
6HR MIN TEMP:  66; 6HR MAX TEMP:  82;

$$

WIZ032>034-041-042-053>061-250700-
SOUTHWEST WISCONSIN

CITY           SKY/WX    TMP DP  RH WIND       PRES   REMARKS
LA CROSSE      FAIR      75  66  73 S6        29.93S
6HR MIN TEMP:  74; 6HR MAX TEMP:  85;

SPARTA         FAIR      72  64  74 W3        29.95S
6HR MIN TEMP:  68; 6HR MAX TEMP:  82;

VIROQUA        FAIR      72  64  75 S8        29.98S
6HR MIN TEMP:  72; 6HR MAX TEMP:  83;

BOSCOBEL       FAIR      68  64  87 CALM      29.97F
6HR MIN TEMP:  66; 6HR MAX TEMP:  87;

PRAIRIE DU CHI FAIR      72  62  70 CALM      29.96F
6HR MIN TEMP:  71; 6HR MAX TEMP:  85;

PLATTEVILLE    FAIR      70  63  79 S5        30.00F
6HR MIN TEMP:  69; 6HR MAX TEMP:  83;

$$

WIZ056-057-062-063-064-067-068-250700-
SOUTH CENTRAL WISCONSIN

CITY           SKY/WX    TMP DP  RH WIND       PRES   REMARKS
REEDSBURG      FAIR      72  63  73 S8        29.97S
6HR MIN TEMP:  69; 6HR MAX TEMP:  82;

BARABOO/DELLS  FAIR      69  61  75 S5        29.97F
6HR MIN TEMP:  69; 6HR MAX TEMP:  83;

LONE ROCK      FAIR      67  65  93 E5        29.97F
6HR MIN TEMP:  66; 6HR MAX TEMP:  84;

MINERAL POINT  FAIR      72  63  73 S5        30.00F
MADISON        FAIR      71  61  70 CALM      29.98F
6HR MIN TEMP:  70; 6HR MAX TEMP:  84; 6HR PCP: TRACE;

MIDDLETON      FAIR      73  61  64 SW6       30.00F
6HR MIN TEMP:  67; 6HR MAX TEMP:  85;

WATERTOWN      FAIR      65  60  84 CALM      29.99F
6HR MIN TEMP:  64; 6HR MAX TEMP:  82;

MONROE         FAIR      68  59  73 S7        30.00F
JANESVILLE     FAIR      68  57  68 CALM      30.00F
$$

WIZ051-052-058>065-066-070>072-250700-
SOUTHEAST WISCONSIN

CITY           SKY/WX    TMP DP  RH WIND       PRES   REMARKS
MILWAUKEE      FAIR      68  53  58 S6        30.00F
6HR MIN TEMP:  67; 6HR MAX TEMP:  77;

WAUKESHA       FAIR      64  52  63 S7        30.02F
MILWAUKEE/TIMM FAIR      66  48  52 S3        30.01F
RACINE         FAIR      66  53  63 S5        30.02F
6HR MIN TEMP:  65; 6HR MAX TEMP:  73;

BURLINGTON     FAIR      61  57  87 CALM      30.01F
6HR MIN TEMP:  61; 6HR MAX TEMP:  81;

KENOSHA        FAIR      66  53  63 S5        30.01F
6HR MIN TEMP:  66; 6HR MAX TEMP:  77;

FOND DU LAC    FAIR      66  58  75 S8        29.97F
6HR MIN TEMP:  66; 6HR MAX TEMP:  83;

SHEBOYGAN      FAIR      63  54  72 SW7       29.98F
6HR MIN TEMP:  61; 6HR MAX TEMP:  73;

WEST BEND      FAIR      68  52  56 SW8       30.00F
JUNEAU         FAIR      65  58  76 SE5       30.00F
6HR MIN TEMP:  65; 6HR MAX TEMP:  82;

$$

LSZ147-162-250700-
LAKE SUPERIOR

STATION/POSITION TIME  TEMP    WIND        PRES    WAVE
                       AIR SEA DIR/SP/G            HT/PER
                 (UTC) (F)     (DEG/KT/KT) (MB)    (FT/S)
W MID LAKE BUOY  0550   42 36   20/  6/  6 1009.4F   0
DEVILS ISLAND    0600   57     120/  2/  2 1008.7F
SAXON HARBOR     0540   74     190/  8/ 12 1008.8F
$$

LMZ867-665-643>646-250700-
LAKE MICHIGAN

STATION/POSITION TIME  TEMP    WIND        PRES    WAVE



USA.gov is the U.S. government's official web portal to all federal, state and local government web resources and services.